Weather History for Greenville, ME

Change the Weather History Date:

Tuesday, October 16, 2012

  Actual Average (KMLT) Record (KMLT)
Temperature  
Mean Temperature 45 °F 45 °F  
Max Temperature 51 °F 55 °F 77 °F (1956)
Min Temperature 39 °F 36 °F 22 °F (1980)
Degree Days  
Heating Degree Days 20 20  
Month to date heating degree days 273  
Since 1 July heating degree days 601  
Cooling Degree Days 0 0  
Month to date cooling degree days 0  
Year to date cooling degree days 268  
Moisture  
Dew Point 38 °F    
Average Humidity 84    
Maximum Humidity 97    
Minimum Humidity 65    
Precipitation  
Precipitation 0.16 in 0.13 in 2.88 in (1931)
Month to date precipitation 2.24  
Year to date precipitation 32.89  
Sea Level Pressure  
Sea Level Pressure 29.59 in    
Wind  
Wind Speed 7 mph (NNW)    
Max Wind Speed 16 mph    
Max Gust Speed 31 mph    
T = Trace of Precipitation, MM = Missing Value Source: NWS Daily Summary

Daily Weather History Graph

Daily Weather History Graph

Search for Another Location

Airport:

Trip Planner

Search our weather history database for the weather conditions in past years. The results will help you decide how hot, cold, wet, or windy it might be!

Date:

Astronomy

Oct. 16, 2012 Rise Set
Actual Time 6:56 AM EDT 5:50 PM EDT
Civil Twilight 6:26 AM EDT 6:20 PM EDT
Nautical Twilight 5:52 AM EDT 6:54 PM EDT
Astronomical Twilight 5:17 AM EDT 7:28 PM EDT
Moon 8:21 AM EDT (10/16) 6:25 PM EDT (10/16)
Length of Visible Light 11h 53m
Length of Day
10h 53m
New Moon, 2% of the Moon is Illuminated
Oct 16
New Moon
Oct 21
First Quarter
Oct 29
Full
Nov 6
Last Quarter
Nov 13
New

Hourly Weather History & Observations

Time (EDT) Temp. Windchill Dew Point Humidity Pressure Visibility Wind Dir Wind Speed Gust Speed Precip Events Conditions
12:56 AM 51.1 °F - 48.9 °F 92% 29.59 in - NNW 4.6 mph - 0.06 in   Unknown
1:56 AM 50.0 °F - 48.9 °F 96% 29.59 in - North 4.6 mph - N/A   Unknown
2:56 AM 50.0 °F - 48.9 °F 96% 29.57 in - Calm Calm - 0.03 in   Unknown
3:56 AM 48.9 °F - 48.0 °F 97% 29.55 in - North 10.4 mph - 0.02 in   Unknown
4:56 AM 46.9 °F - 46.0 °F 97% 29.55 in - North 4.6 mph - 0.01 in   Unknown
5:56 AM 46.9 °F - 46.0 °F 97% 29.54 in - NE 6.9 mph - 0.01 in   Unknown
6:56 AM 46.0 °F 42.5 °F 44.1 °F 93% 29.53 in - North 6.9 mph - N/A   Unknown
7:56 AM 46.0 °F 41.9 °F 44.1 °F 93% 29.54 in - North 8.1 mph - 0.01 in   Unknown
8:56 AM 42.1 °F 36.1 °F 39.9 °F 92% 29.55 in - NW 10.4 mph 20.7 mph 0.01 in   Unknown
9:56 AM 41.0 °F 35.8 °F 39.0 °F 93% 29.54 in - NW 8.1 mph 24.2 mph N/A   Unknown
10:56 AM 41.0 °F 32.8 °F 37.9 °F 89% 29.53 in - NW 16.1 mph 23.0 mph N/A   Unknown
11:56 AM 41.0 °F 38.0 °F 37.9 °F 89% 29.54 in - Variable 4.6 mph 20.7 mph 0.01 in   Unknown
12:56 PM 42.1 °F 38.4 °F 37.9 °F 85% 29.51 in - Variable 5.8 mph - N/A   Unknown
1:56 PM 43.0 °F 38.2 °F 37.0 °F 80% 29.51 in - WNW 8.1 mph 19.6 mph N/A   Unknown
2:56 PM 41.0 °F 35.8 °F 34.0 °F 76% 29.53 in - WNW 8.1 mph 28.8 mph N/A   Unknown
3:56 PM 39.0 °F 33.4 °F 33.1 °F 79% 29.56 in - WNW 8.1 mph 19.6 mph N/A   Unknown
4:56 PM 39.0 °F 33.4 °F 32.0 °F 76% 29.59 in - WNW 8.1 mph 23.0 mph N/A   Unknown
5:56 PM 39.0 °F 32.3 °F 32.0 °F 76% 29.62 in - WNW 10.4 mph 21.9 mph N/A   Unknown
6:56 PM 39.9 °F 35.1 °F 32.0 °F 73% 29.66 in - Variable 6.9 mph - N/A   Unknown
7:56 PM 39.9 °F 32.5 °F 30.9 °F 70% 29.67 in - NW 12.7 mph 31.1 mph N/A   Unknown
8:56 PM 39.9 °F 34.5 °F 30.9 °F 70% 29.69 in - NW 8.1 mph 23.0 mph N/A   Unknown
9:56 PM 39.9 °F 32.5 °F 28.9 °F 65% 29.73 in - NW 12.7 mph 25.3 mph N/A   Unknown
10:56 PM 39.0 °F 34.0 °F 30.0 °F 70% 29.74 in - Variable 6.9 mph - N/A   Unknown
11:56 PM 39.0 °F 32.8 °F 30.0 °F 70% 29.74 in - WNW 9.2 mph 23.0 mph N/A   Unknown